Weather History for Cheraw, SC

Change the Weather History Date:

Thursday, October 25, 2012

  Actual Average (KFLO) Record (KFLO)
Temperature  
Mean Temperature 66 °F 62 °F  
Max Temperature 82 °F 73 °F 84 °F (1991)
Min Temperature 50 °F 50 °F 33 °F (1962)
Degree Days  
Heating Degree Days 0 5  
Month to date heating degree days 72  
Since 1 July heating degree days 81  
Cooling Degree Days 1 2  
Month to date cooling degree days 78  
Year to date cooling degree days 2034  
Growing Degree Days 16 (Base 50)    
Moisture  
Dew Point 57 °F    
Average Humidity 82    
Maximum Humidity 100    
Minimum Humidity 42    
Precipitation  
Precipitation 0.00 in 0.08 in 0.84 in (1970)
Month to date precipitation 2.59  
Year to date precipitation 36.74  
Sea Level Pressure  
Sea Level Pressure 30.11 in    
Wind  
Wind Speed 2 mph (ENE)    
Max Wind Speed 17 mph    
Max Gust Speed 24 mph    
Visibility 7 miles    
Events Fog    
T = Trace of Precipitation, MM = Missing Value Source: NWS Daily Summary

Daily Weather History Graph

Daily Weather History Graph

Search for Another Location

Airport:

Trip Planner

Search our weather history database for the weather conditions in past years. The results will help you decide how hot, cold, wet, or windy it might be!

Date:

Astronomy

Oct. 25, 2012 Rise Set
Actual Time 7:34 AM EDT 6:32 PM EDT
Civil Twilight 7:08 AM EDT 6:58 PM EDT
Nautical Twilight 6:39 AM EDT 7:28 PM EDT
Astronomical Twilight 6:09 AM EDT 7:57 PM EDT
Moon 4:10 PM EDT (10/25) 3:38 AM EDT (10/25)
Length of Visible Light 11h 49m
Length of Day
10h 58m
Waxing Gibbous, 84% of the Moon is Illuminated
Oct 25
Waxing Gibbous
Oct 29
Full
Nov 6
Last Quarter
Nov 13
New
Nov 20
First Quarter

Hourly Weather History & Observations

Time (EDT) Temp. Heat Index Dew Point Humidity Pressure Visibility Wind Dir Wind Speed Gust Speed Precip Events Conditions
12:15 AM 53.6 °F - 53.6 °F 100% 30.13 in 7.0 mi Calm Calm - N/A   Clear
12:35 AM 53.6 °F - 53.6 °F 100% 30.13 in 4.0 mi Calm Calm - N/A   Clear
12:55 AM 51.8 °F - 51.8 °F 100% 30.13 in 1.2 mi Calm Calm - N/A   Clear
1:15 AM 51.8 °F - 51.8 °F 100% 30.13 in 7.0 mi Calm Calm - N/A   Clear
1:35 AM 51.8 °F - 51.8 °F 100% 30.13 in 4.0 mi Calm Calm - N/A   Clear
1:55 AM 51.8 °F - 51.8 °F 100% 30.13 in 5.0 mi Calm Calm - N/A   Clear
2:15 AM 51.8 °F - 51.8 °F 100% 30.13 in 1.5 mi Calm Calm - N/A   Clear
2:35 AM 51.8 °F - 51.8 °F 100% 30.13 in 4.0 mi Calm Calm - N/A   Clear
2:55 AM 51.8 °F - 51.8 °F 100% 30.12 in 1.8 mi Calm Calm - N/A   Clear
3:15 AM 51.8 °F - 51.8 °F 100% 30.12 in 4.0 mi Calm Calm - N/A   Clear
3:35 AM 51.8 °F - 51.8 °F 100% 30.12 in 1.0 mi Calm Calm - N/A   Clear
3:55 AM 51.8 °F - 51.8 °F 100% 30.11 in 0.8 mi Calm Calm - N/A   Mist
4:15 AM 51.8 °F - 51.8 °F 100% 30.11 in 3.0 mi Calm Calm - N/A   Clear
4:35 AM 51.8 °F - 51.8 °F 100% 30.11 in 0.8 mi Calm Calm - N/A   Mist
4:55 AM 51.8 °F - 51.8 °F 100% 30.11 in 0.8 mi Calm Calm - N/A   Mist
5:15 AM 50.0 °F - 50.0 °F 100% 30.11 in 0.5 mi Calm Calm - N/A Fog Fog
5:35 AM 51.8 °F - 51.8 °F 100% 30.12 in 3.0 mi Calm Calm - N/A   Clear
5:55 AM 50.0 °F - 50.0 °F 100% 30.12 in 0.2 mi Calm Calm - N/A Fog Fog
6:15 AM 51.8 °F - 51.8 °F 100% 30.12 in 0.8 mi Calm Calm - N/A   Mist
6:35 AM 51.8 °F - 51.8 °F 100% 30.12 in 0.8 mi North 3.5 mph - N/A   Mist
6:55 AM 51.8 °F - 51.8 °F 100% 30.12 in 1.0 mi Calm Calm - N/A   Clear
7:15 AM 50.0 °F - 50.0 °F 100% 30.13 in 9.0 mi Calm Calm - N/A   Clear
7:35 AM 50.0 °F - 50.0 °F 100% 30.13 in 0.2 mi Calm Calm - N/A Fog Fog
8:35 AM 53.6 °F - 53.6 °F 100% 30.15 in 6.0 mi Calm Calm - N/A   Clear
9:15 AM 55.4 °F - 55.4 °F 100% 30.15 in 9.0 mi ENE 4.6 mph - N/A   Clear
9:35 AM 57.2 °F - 57.2 °F 100% 30.15 in 10.0 mi NNE 6.9 mph - N/A   Clear
9:55 AM 62.6 °F - 60.8 °F 94% 30.16 in 10.0 mi NE 6.9 mph - N/A   Clear
10:15 AM 66.2 °F - 60.8 °F 83% 30.16 in 10.0 mi NE 9.2 mph - N/A   Clear
10:35 AM 68.0 °F - 60.8 °F 78% 30.16 in 10.0 mi NNE 9.2 mph - N/A   Clear
10:55 AM 71.6 °F - 60.8 °F 69% 30.16 in 10.0 mi East 9.2 mph - N/A   Clear
11:15 AM 73.4 °F - 62.6 °F 69% 30.16 in 10.0 mi ENE 6.9 mph - N/A   Clear
11:35 AM 73.4 °F - 62.6 °F 69% 30.15 in 10.0 mi ENE 9.2 mph 19.6 mph N/A   Clear
11:55 AM 75.2 °F - 64.4 °F 69% 30.15 in 10.0 mi NNE 9.2 mph 19.6 mph N/A   Clear
12:15 PM 77.0 °F - 62.6 °F 61% 30.14 in 10.0 mi East 6.9 mph 20.7 mph N/A   Clear
12:35 PM 78.8 °F - 62.6 °F 57% 30.14 in 10.0 mi ENE 15.0 mph 24.2 mph N/A   Clear
12:55 PM 78.8 °F - 62.6 °F 57% 30.13 in 10.0 mi ESE 6.9 mph 19.6 mph N/A   Clear
1:35 PM 80.6 °F 81.5 °F 60.8 °F 51% 30.11 in 10.0 mi ESE 10.4 mph 18.4 mph N/A   Clear
1:55 PM 80.6 °F 81.5 °F 60.8 °F 51% 30.10 in 10.0 mi NE 17.3 mph 21.9 mph N/A   Partly Cloudy
2:15 PM 80.6 °F 81.1 °F 59.0 °F 48% 30.10 in 10.0 mi SE 6.9 mph 20.7 mph N/A   Scattered Clouds
2:35 PM 80.6 °F 81.1 °F 59.0 °F 48% 30.09 in 10.0 mi SE 8.1 mph 16.1 mph N/A   Partly Cloudy
2:55 PM 82.4 °F 82.0 °F 57.2 °F 42% 30.09 in 10.0 mi East 11.5 mph 23.0 mph N/A   Clear
3:15 PM 80.6 °F 80.8 °F 57.2 °F 45% 30.08 in 10.0 mi NNE 3.5 mph - N/A   Clear
3:35 PM 82.4 °F 82.0 °F 57.2 °F 42% 30.08 in 10.0 mi East 8.1 mph - N/A   Clear
4:15 PM 82.4 °F 82.0 °F 57.2 °F 42% 30.08 in 10.0 mi East 9.2 mph - N/A   Clear
4:35 PM 80.6 °F 80.8 °F 57.2 °F 45% 30.07 in 10.0 mi East 16.1 mph 20.7 mph N/A   Partly Cloudy
4:55 PM 80.6 °F 80.8 °F 57.2 °F 45% 30.07 in 10.0 mi East 11.5 mph 19.6 mph N/A   Clear
5:15 PM 80.6 °F 80.8 °F 57.2 °F 45% 30.07 in 10.0 mi East 11.5 mph 19.6 mph N/A   Clear
5:35 PM 80.6 °F 80.8 °F 57.2 °F 45% 30.07 in 10.0 mi East 4.6 mph - N/A   Clear
5:55 PM 78.8 °F - 59.0 °F 51% 30.07 in 10.0 mi East 5.8 mph - N/A   Clear
6:35 PM 69.8 °F - 60.8 °F 73% 30.08 in 10.0 mi NE 3.5 mph - N/A   Clear
6:55 PM 69.8 °F - 62.6 °F 78% 30.08 in 10.0 mi Calm Calm - N/A   Clear
7:15 PM 68.0 °F - 60.8 °F 78% 30.09 in 10.0 mi Calm Calm - N/A   Partly Cloudy
7:35 PM 68.0 °F - 60.8 °F 78% 30.09 in 10.0 mi Calm Calm - N/A   Mostly Cloudy
7:55 PM 66.2 °F - 60.8 °F 83% 30.10 in 10.0 mi Calm Calm - N/A   Mostly Cloudy
8:15 PM 66.2 °F - 60.8 °F 83% 30.10 in 10.0 mi Calm Calm - N/A   Partly Cloudy
8:35 PM 64.4 °F - 60.8 °F 88% 30.10 in 10.0 mi Calm Calm - N/A   Scattered Clouds
8:55 PM 64.4 °F - 60.8 °F 88% 30.10 in 10.0 mi Calm Calm - N/A   Partly Cloudy
9:15 PM 64.4 °F - 60.8 °F 88% 30.10 in 10.0 mi Calm Calm - N/A   Clear
9:35 PM 62.6 °F - 60.8 °F 94% 30.10 in 10.0 mi Calm Calm - N/A   Clear
9:55 PM 62.6 °F - 60.8 °F 94% 30.09 in 10.0 mi Calm Calm - N/A   Clear
10:15 PM 60.8 °F - 60.8 °F 100% 30.10 in 10.0 mi Calm Calm - N/A   Clear
10:35 PM 60.8 °F - 59.0 °F 94% 30.09 in 10.0 mi NE 4.6 mph - N/A   Clear
10:55 PM 60.8 °F - 60.8 °F 100% 30.08 in 10.0 mi Calm Calm - N/A   Clear
11:55 PM 59.0 °F - 59.0 °F 100% 30.07 in 10.0 mi Calm Calm - N/A   Clear